EHI
0 0 0 0 0 0 0 0 0 0 0 0 0 0 0 0 0 0 0 0 0 0 0 0 0 0 0 0 0 0 0 1 6 13 15 9 3 2 3 4 3 1 0 0
0 0 0 0 0 0 0 0 0 0 0 0 0 0 0 0 0 0 0 0 0 0 0 0 0 0 0 0 0 0 0 1 4 10 14 12 7 4 4 5 5 3 1 1
0 0 0 0 0 0 0 0 0 0 0 0 0 0 0 0 0 0 0 0 0 0 0 0 0 0 0 0 0 0 0 0 2 7 13 15 12 8 5 6 6 4 2 2
0 0 0 0 0 0 0 0 0 0 0 0 0 0 0 0 0 0 0 0 0 0 0 0 0 0 0 0 0 0 0 0 0 3 9 12 11 7 4 4 4 4 3 3
0 0 0 0 0 0 0 0 0 0 0 0 0 0 0 0 0 0 0 0 0 0 0 0 0 0 0 0 0 0 0 0 0 1 3 4 4 3 1 1 3 5 6 8
0 0 0 0 0 0 0 0 0 0 0 0 0 0 0 0 0 0 0 0 0 0 0 0 0 0 0 0 0 0 0 0 0 0 0 0 0 0 0 1 2 5 9 12
0 0 0 0 0 0 0 0 0 0 0 0 0 0 0 0 0 0 0 0 0 0 0 0 0 0 0 0 0 0 0 0 0 0 0 0 0 0 0 0 1 2 5 8
0 0 0 0 0 0 0 0 0 0 0 0 0 0 0 0 0 0 0 0 0 0 0 0 0 0 0 0 0 0 0 0 0 0 0 0 0 0 0 0 0 1 1 2
0 0 0 0 0 0 0 0 0 0 0 0 0 0 0 0 0 0 0 0 0 0 0 0 0 0 0 0 0 0 0 0 0 0 0 0 0 0 0 0 0 1 1 1
0 0 0 0 0 0 0 0 0 0 0 0 0 0 0 0 0 0 0 0 0 0 0 0 0 0 0 0 0 0 0 0 0 0 0 0 0 0 0 0 0 1 1 1
0 0 0 0 0 0 0 0 0 0 0 0 0 0 0 0 0 0 0 0 0 0 0 0 0 0 0 0 0 0 0 0 0 0 0 0 0 0 0 0 0 0 0 1
0 0 0 0 0 0 0 0 0 0 0 0 0 0 0 0 0 0 0 0 0 0 0 0 0 0 0 0 0 0 0 0 0 0 0 0 0 0 0 0 0 0 0 0
0 0 0 0 0 0 0 0 0 0 0 0 0 0 0 0 0 0 0 0 0 0 0 0 0 0 0 0 0 0 0 0 0 0 0 0 0 0 0 0 0 0 0 0
0 0 0 0 0 0 0 0 0 0 0 0 0 0 0 0 0 0 0 0 0 0 0 0 0 0 0 0 0 0 0 0 0 0 0 0 0 0 0 0 0 0 0 0
0 0 0 0 0 0 0 0 0 0 0 0 0 0 0 0 0 0 0 0 0 0 0 0 0 0 0 0 0 0 0 0 0 0 0 0 0 0 0 0 0 0 0 0
0 0 0 0 0 0 0 0 0 0 0 0 0 0 0 0 0 0 0 0 0 0 0 0 0 0 0 0 0 0 0 0 0 0 0 0 0 0 0 0 0 0 0 0
0 0 0 0 0 0 0 0 0 0 0 0 0 0 0 0 0 0 0 0 0 0 0 0 0 0 0 0 0 0 0 0 0 0 0 0 0 0 0 0 0 0 0 0
0 0 0 0 0 0 0 0 0 0 0 0 0 0 0 0 0 0 0 0 0 0 0 0 0 0 0 0 0 0 0 0 0 0 0 0 0 0 0 0 0 0 0 0
0 0 0 0 0 0 0 0 0 0 0 0 0 0 0 0 0 0 0 0 0 0 0 0 0 0 0 0 0 0 0 0 0 0 0 0 0 0 0 0 0 0 0 0
0 0 0 0 0 0 0 0 0 0 0 0 0 0 0 0 0 0 0 0 0 0 0 0 0 0 0 0 0 0 0 0 0 0 0 0 0 0 0 0 0 0 0 0
0 0 0 0 0 0 0 0 0 0 0 0 0 0 0 0 0 0 0 0 0 0 0 0 0 0 0 0 0 0 0 0 0 0 0 0 0 0 0 0 0 0 0 0
0 0 0 0 0 0 0 0 0 0 0 0 0 0 0 0 0 0 0 0 0 0 0 0 0 0 0 0 0 0 0 0 0 0 0 0 0 0 0 0 0 0 0 0
0 0 0 0 0 0 0 0 0 0 0 0 0 0 0 0 0 0 0 0 0 0 0 0 0 0 0 0 0 0 0 0 0 0 0 0 0 0 0 0 0 0 0 0
0 0 0 0 0 0 0 0 0 0 0 0 0 0 0 0 0 0 0 0 0 0 0 0 0 0 0 0 0 0 0 0 0 0 0 0 0 0 0 0 0 0 0 0
0 0 0 0 0 0 0 0 0 0 0 0 0 0 0 0 0 0 0 0 0 0 0 0 0 0 0 0 0 0 0 0 0 0 0 0 0 0 0 0 0 0 0 0
0 0 0 0 0 0 0 0 0 0 0 0 0 0 0 0 0 0 0 0 0 0 0 0 0 0 0 0 0 0 0 0 0 0 0 0 0 0 0 0 0 0 0 0
Wind_Speed
11 10 14 17 16 7 11 12 10 9 5 8 11 11 10 9 10 11 11 10 10 9 8 6 6 6 6 7 8 10 11 12 11 9 9 10 11 11 10 11 14 14 14 15
9 12 14 13 12 8 10 12 9 6 4 5 6 9 8 7 8 8 8 8 7 6 5 4 4 4 5 6 7 8 9 10 11 9 9 9 10 9 10 10 12 15 15 15
9 8 12 13 13 11 10 10 9 6 5 3 4 6 5 3 2 2 2 2 2 3 2 1 1 1 1 2 4 4 7 8 9 10 8 7 8 8 8 11 12 15 16 16
5 6 13 14 14 12 9 7 7 6 6 4 4 4 5 5 6 5 4 4 3 2 2 2 2 2 2 2 3 3 4 5 6 7 9 12 11 12 13 11 11 13 15 16
6 8 14 14 12 10 5 6 6 4 3 3 5 5 5 7 7 6 5 5 5 4 3 3 3 3 3 4 3 3 3 3 4 5 8 10 12 11 10 11 13 13 12 14
6 4 5 6 7 8 10 8 6 3 2 6 6 7 6 7 8 7 6 5 5 5 4 5 4 4 5 5 4 4 4 3 3 4 5 8 11 12 12 13 12 11 9 10
6 4 4 5 9 7 7 7 5 6 6 5 4 6 4 6 6 6 5 4 4 4 4 5 6 6 6 6 6 6 5 5 5 4 5 6 9 10 12 13 12 12 9 9
7 6 3 3 5 8 8 7 4 4 6 5 5 7 3 4 4 4 2 1 2 3 4 5 5 6 6 6 7 7 7 7 6 6 6 6 7 7 7 10 10 10 9 9
6 6 4 4 2 6 8 5 1 1 1 3 6 4 2 5 7 6 4 1 2 3 4 4 5 6 6 7 7 8 8 7 8 8 7 7 6 7 8 9 9 8 8 6
6 8 5 4 5 5 1 5 4 4 4 5 5 6 8 13 11 7 3 1 2 2 3 4 5 6 6 6 7 7 7 8 8 8 7 6 7 7 7 7 7 6 6 5
5 7 6 4 3 6 6 4 3 3 2 3 4 4 5 13 10 6 2 1 2 2 3 4 4 5 5 6 6 7 8 8 8 8 8 7 7 6 5 4 4 4 3 3
3 5 5 3 1 1 3 5 6 4 4 3 2 4 4 9 7 3 0 1 1 2 2 3 4 5 5 6 7 7 8 8 8 8 7 7 7 6 5 5 4 3 1 1
5 6 7 5 4 4 4 5 4 2 2 3 3 5 4 6 5 3 2 2 1 1 2 2 3 5 5 6 6 7 7 8 8 7 7 7 8 7 7 6 6 5 5 5
4 3 2 3 3 7 7 8 8 6 4 5 5 2 5 6 4 3 3 2 1 1 1 2 3 4 5 5 6 6 7 7 7 7 8 9 9 8 8 8 8 8 8 8
2 3 2 2 2 4 5 10 12 11 7 6 3 4 5 4 4 5 3 2 1 0 1 2 3 4 4 5 6 6 6 7 7 8 9 9 8 8 9 10 10 10 10 11
2 3 3 2 2 3 5 9 13 13 11 10 7 8 6 5 4 5 4 3 2 1 1 1 2 3 4 5 5 5 6 7 7 8 8 8 8 9 10 10 11 11 11 11
3 4 3 2 1 3 7 11 14 10 10 10 12 8 4 5 6 6 4 3 2 1 1 1 1 3 3 4 4 5 6 6 7 8 8 8 8 9 9 10 10 10 10 11
4 4 2 2 3 6 1 1 8 11 11 11 10 8 7 7 7 5 3 2 2 3 3 2 2 3 3 4 4 5 6 6 7 8 8 8 8 9 9 10 10 9 9 9
2 3 2 2 3 5 3 3 6 7 6 10 13 12 8 5 5 3 3 3 3 3 3 3 4 4 4 4 5 5 6 7 7 8 7 7 7 8 9 9 9 8 9 9
2 2 2 3 4 3 2 2 3 4 3 2 6 6 5 3 4 1 6 5 5 5 4 5 5 5 5 5 5 6 7 7 7 7 7 7 7 8 9 8 8 8 8 8
4 4 4 5 5 5 1 2 5 4 3 2 2 2 3 4 3 3 7 6 6 6 6 5 5 5 5 5 6 7 7 7 6 6 7 7 8 8 8 8 7 7 7 8
7 6 6 5 6 4 3 5 4 2 2 1 2 2 3 3 2 4 6 7 7 7 7 6 5 5 5 5 6 7 6 6 6 7 7 7 7 7 6 7 7 7 7 7
7 6 3 5 3 2 2 3 2 2 3 3 3 2 2 3 4 5 6 7 8 8 7 6 6 6 5 5 6 7 6 6 7 7 7 7 7 6 6 6 6 5 5 4
4 4 5 5 6 5 4 4 3 3 4 3 3 3 3 4 4 6 7 8 8 8 8 7 7 7 6 6 6 7 7 7 7 8 7 6 6 6 6 4 4 4 3 3
4 6 5 6 5 4 2 1 1 2 2 2 2 2 4 4 5 6 7 8 9 8 8 8 7 7 8 7 7 7 7 7 8 7 6 6 5 6 5 5 4 4 4 2
6 7 6 4 2 2 1 1 2 3 3 3 4 3 3 4 5 6 7 8 9 9 9 8 8 8 8 8 8 7 7 7 8 7 6 4 4 4 4 5 5 6 5 6
Wind_Direction
175 185 190 187 194 213 188 189 189 187 165 203 220 237 244 251 249 251 250 248 247 251 263 270 268 258 246 240 239 238 235 228 223 218 215 216 221 223 224 225 227 224 221 216
167 197 193 183 182 181 180 185 179 157 165 215 228 248 252 254 251 255 254 250 249 253 256 264 267 258 249 245 243 244 242 240 232 227 224 224 227 228 227 225 228 226 223 219
175 175 172 174 175 181 188 189 175 155 152 177 251 234 204 174 176 191 214 233 243 252 260 280 297 291 278 274 269 259 253 250 244 239 234 231 232 234 230 227 227 226 223 221
155 156 171 177 183 184 183 178 168 163 189 177 237 219 154 142 129 120 113 106 97 89 76 47 34 32 17 342 323 299 282 266 256 246 236 231 229 230 232 233 232 230 226 224
152 167 173 180 183 184 150 139 145 164 193 210 209 239 161 160 146 122 101 87 75 66 60 52 36 24 23 12 355 336 316 295 281 261 247 242 240 242 245 243 241 239 231 226
116 135 163 166 152 154 131 118 99 107 195 229 203 222 185 171 157 138 112 88 74 63 56 52 46 37 33 25 16 2 347 337 320 287 265 250 250 249 249 248 246 244 239 230
112 105 94 130 129 144 164 159 163 180 201 214 149 222 206 138 150 148 123 85 58 50 43 36 32 25 21 15 10 1 354 346 338 316 287 270 262 258 253 253 250 248 243 235
139 134 131 147 162 167 180 198 213 197 192 157 175 224 140 127 159 170 165 92 48 42 33 27 22 13 9 5 0 356 350 342 338 328 313 295 281 268 262 258 256 254 250 244
140 118 106 89 105 153 163 192 347 67 99 206 190 209 198 160 170 175 168 122 57 32 22 17 13 8 3 359 356 350 343 338 336 329 319 308 299 284 276 272 266 261 257 255
114 119 123 126 109 52 102 144 164 193 209 214 180 197 174 168 168 165 159 81 41 23 16 14 9 5 0 356 351 351 348 343 339 334 329 318 311 302 291 279 269 265 262 252
106 117 131 153 177 162 149 165 180 176 259 256 192 141 140 162 158 156 138 25 3 4 6 9 6 5 2 3 1 1 359 353 349 345 340 336 334 331 320 305 292 279 266 248
97 116 125 116 42 228 209 189 179 195 196 234 274 110 123 163 159 162 292 332 350 5 14 14 13 14 14 13 10 7 4 0 356 351 352 355 354 355 358 1 360 3 32 87
132 130 131 146 174 184 199 186 189 138 137 194 223 125 123 173 188 218 283 308 338 23 29 27 28 22 19 16 15 13 12 6 2 4 9 14 15 17 21 25 32 45 63 76
117 128 200 184 155 169 188 188 184 176 196 203 231 167 169 192 218 272 300 308 329 62 48 32 31 29 23 20 19 18 18 15 15 22 29 30 28 30 36 41 47 55 66 74
100 114 107 79 114 166 196 195 195 206 216 222 221 232 225 231 266 290 297 295 287 92 57 40 30 28 27 28 28 25 26 26 31 41 44 42 41 45 52 57 59 61 66 71
89 118 132 135 161 204 230 218 211 219 227 236 256 269 262 264 263 272 285 286 271 208 105 57 41 29 34 34 34 33 37 39 46 54 53 51 54 56 59 63 67 69 70 72
136 148 170 170 158 227 247 222 206 208 215 220 232 242 253 266 281 295 298 277 245 182 149 119 75 53 48 47 47 50 51 56 60 62 60 59 63 64 65 69 71 73 74 76
148 144 150 171 199 239 89 111 205 215 225 221 236 249 262 276 297 298 283 230 173 162 158 142 116 94 82 75 74 75 71 70 71 70 68 68 72 73 73 74 73 72 74 76
159 164 172 215 251 270 265 186 182 198 233 224 232 250 264 282 277 223 151 145 141 142 136 125 116 112 105 93 89 90 83 80 75 72 74 75 81 84 81 79 76 75 77 75
111 162 193 209 251 247 91 109 177 198 194 154 206 237 247 237 265 133 143 146 140 137 135 130 127 122 111 100 100 94 88 84 79 79 81 83 85 87 86 85 83 81 82 83
172 183 206 222 251 271 277 145 166 209 130 133 212 243 233 239 292 98 143 148 147 143 139 136 133 122 112 113 110 101 95 89 89 90 88 86 87 90 92 91 91 93 93 91
196 197 202 207 227 246 123 160 199 34 55 270 266 270 255 240 159 153 161 158 155 152 149 148 138 125 119 122 119 112 104 102 102 99 94 89 90 92 96 99 98 100 103 100
214 218 215 221 240 33 170 223 300 312 275 276 272 273 246 220 203 183 174 169 165 162 158 156 147 134 126 126 130 123 121 120 115 106 100 97 96 94 100 105 107 104 101 99
214 206 226 249 255 252 255 257 274 275 270 284 281 272 241 235 211 188 178 173 169 168 166 161 156 147 141 140 138 133 134 132 125 117 111 109 106 101 97 93 94 98 98 101
213 185 214 243 260 269 208 161 2 333 317 309 298 263 248 235 211 193 183 178 173 170 168 168 165 157 151 150 146 144 144 143 133 126 120 116 110 111 102 90 76 78 73 65
202 201 208 228 213 232 177 72 3 328 316 312 300 281 252 231 219 195 187 179 173 171 170 171 169 162 159 159 155 153 155 154 144 137 136 133 129 122 119 117 104 79 80 85